Location: Austin
(30.3000°N, 97.7500°W)
Time: 23:49:51
(UTC-06:00)

Cosmos 2061 Rocket - Pass Details

Date: 04 November 2025
Orbit: 964 x 1013 km, 82.9° (Epoch: 15 November)

Event Time Altitude Azimuth Distance (km) Brightness Sun altitude
Rises 18:39:03 0° 172° (S) 3,725 7.1 -13.0°
Reaches altitude 10° 18:41:38 10° 169° (SSE) 2,774 6.4 -13.6°
Maximum altitude 18:47:51 57° 92° (E) 1,163 4.1 -14.9°
Drops below altitude 10° 18:54:02 10° 15° (NNE) 2,758 6.1 -16.2°
Sets 18:56:35 0° 12° (NNE) 3,703 6.8 -16.7°
